Home > Weather > Bozeman > Past weeks

Flag for USA Past Weather in Bozeman, Montana, USA — Yesterday and Last 2 Weeks

Now
49 °F

Mostly cloudy.


Feels Like: 46 °F
Forecast: 38 / 59 °F
Wind: 6 mph from Northwest

Location: Gallatin Field

Current Time: May 27, 2016 at 8:15:22 PM

Latest Report: May 27, 2016 at 6:56 PM


Visibility: 10 mi

Pressure: 29.93 "Hg (25.05 "Hg at 1469m altitude)

Humidity: 84%

Dew Point: 44 °F

Location of BozemanLocation

Past Weather in Bozeman — Graph

°F

Bozeman Temperature Yesterday

Maximum temperature yesterday: 64 °F (at 4:56 PM)
Minimum temperature yesterday: 46 °F (at 2:56 AM)
Average temperature yesterday: 54 °F

High & Low Weather Summary for the Past Weeks

 TemperatureHumidityPressure
High72 °F (May 18, 3:56 PM)97% (May 20, 2:56 AM)30.39 "Hg (May 20, 2:56 AM)
Low32 °F (May 22, 4:56 AM)29% (May 25, 4:56 PM)29.55 "Hg (May 19, 11:56 AM)
Average50 °F70%29.94 "Hg
* Reported May 12 6:56 PM — May 27 6:56 PM, Bozeman, Weather by CustomWeather, © 2016

Note: Actual official high and low records may vary slightly from our data, if they occured in-between our weather recording intervals... More about our weather records

Advertising

Bozeman Weather History for the Previous 24 Hours

Scroll right to see more
 ConditionsComfort  
Time TempWeatherWind HumidityBarometerVisibility
6:56 PM
Fri, May 27
49 °FMostly cloudy.6 mph84%29.93 "Hg10 mi
5:56 PM50 °FRain. Fog.14 mph86%29.91 "Hg3 mi
4:56 PM55 °FOvercast.9 mph64%29.88 "Hg10 mi
3:56 PM59 °FSunny.15 mph62%29.86 "Hg10 mi
2:56 PM59 °FScattered clouds.10 mph54%29.85 "Hg10 mi
1:56 PM58 °FOvercast.3 mph58%29.86 "Hg10 mi
12:56 PM58 °FSunny.No wind60%29.86 "Hg10 mi
11:56 AM54 °FOvercast.5 mph77%29.90 "Hg10 mi
10:56 AM50 °FMostly cloudy.3 mph83%29.93 "Hg10 mi
9:56 AM50 °FMostly cloudy.6 mph83%29.92 "Hg10 mi
8:56 AM47 °FLight rain. Fog.7 mph90%29.93 "Hg5 mi
7:56 AM47 °FOvercast.5 mph86%29.93 "Hg10 mi
6:56 AM44 °FOvercast.No wind93%29.92 "Hg10 mi
5:56 AM44 °FOvercast.No wind89%29.90 "Hg10 mi
4:56 AM43 °FPassing clouds.6 mph89%29.88 "Hg10 mi
3:56 AM39 °FClear.5 mph93%29.90 "Hg10 mi
2:56 AM41 °FClear.No wind93%29.90 "Hg10 mi
1:56 AM43 °FClear.9 mph89%29.89 "Hg10 mi
12:56 AM47 °FMostly cloudy.6 mph86%29.90 "Hg10 mi
11:56 PM
Thu, May 26
48 °FPassing clouds.7 mph83%29.90 "Hg10 mi
10:56 PM47 °FPassing clouds.No wind86%29.92 "Hg10 mi
9:56 PM51 °FSunny.6 mph74%29.90 "Hg10 mi
8:56 PM56 °FPartly sunny.7 mph67%29.88 "Hg10 mi
Weather by CustomWeather, © 2016

See weather overviewHow to use our weather pages